Location: Newark
(42.8481°N, 0.4872°E)
Time: 19:37:09
(UTC+00:00)

Transit 2A - Pass Details

Date: 28 October 2020
Orbit: 595 x 963 km, 66.7° (Epoch: 03 December)

Event Time Altitude Azimuth Distance (km) Brightness Sun altitude
Rises 23:16:30 0° 164° (SSE) 3,597 - -60.2°
Reaches altitude 10° 23:19:42 10° 149° (SSE) 2,681 - -60.3°
Maximum altitude 23:24:05 20° 105° (ESE) 2,070 - -60.4°
Drops below altitude 10° 23:28:27 10° 61° (ENE) 2,689 - -60.5°
Sets 23:31:40 0° 45° (NE) 3,613 - -60.6°
